QPF
0.00 0.00 0.00 0.00 0.00 0.00 0.00 0.00 0.00 0.00 0.00 0.00 0.00 0.00 0.00 0.00 0.00 0.00 0.00 0.00 0.00 0.00 0.00 0.00 0.00 0.00 0.00 0.00 0.00 0.00 0.00 0.00 0.00 0.00 0.00 0.00 0.00 0.00 0.00 0.00 0.00 0.00 0.00 0.00 0.00 0.00 0.00 0.00 0.00
0.00 0.00 0.00 0.00 0.00 0.00 0.00 0.00 0.00 0.00 0.00 0.00 0.00 0.00 0.00 0.00 0.00 0.00 0.00 0.00 0.00 0.00 0.00 0.00 0.00 0.00 0.00 0.00 0.00 0.00 0.00 0.00 0.00 0.00 0.00 0.00 0.00 0.00 0.00 0.00 0.00 0.00 0.00 0.00 0.00 0.00 0.00 0.00 0.00
0.00 0.00 0.00 0.00 0.00 0.00 0.00 0.00 0.00 0.00 0.00 0.00 0.00 0.00 0.00 0.00 0.00 0.00 0.00 0.00 0.00 0.00 0.00 0.00 0.00 0.00 0.00 0.00 0.00 0.00 0.00 0.00 0.00 0.00 0.00 0.00 0.00 0.00 0.00 0.00 0.00 0.00 0.00 0.00 0.00 0.00 0.00 0.00 0.00
0.00 0.00 0.00 0.00 0.00 0.00 0.00 0.00 0.00 0.00 0.00 0.00 0.00 0.00 0.01 0.00 0.00 0.00 0.00 0.00 0.00 0.00 0.00 0.00 0.00 0.00 0.00 0.00 0.00 0.00 0.00 0.00 0.00 0.00 0.00 0.00 0.00 0.00 0.00 0.00 0.00 0.00 0.00 0.00 0.00 0.00 0.00 0.00 0.00
0.00 0.00 0.00 0.00 0.00 0.00 0.00 0.00 0.00 0.00 0.00 0.00 0.00 0.00 0.01 0.01 0.00 0.00 0.00 0.00 0.00 0.00 0.00 0.00 0.00 0.00 0.00 0.00 0.00 0.00 0.00 0.00 0.00 0.00 0.00 0.00 0.00 0.00 0.00 0.00 0.00 0.00 0.00 0.00 0.00 0.00 0.00 0.00 0.00
0.00 0.00 0.00 0.00 0.00 0.00 0.00 0.00 0.00 0.00 0.00 0.00 0.00 0.00 0.00 0.00 0.00 0.00 0.00 0.00 0.00 0.00 0.00 0.00 0.00 0.00 0.00 0.00 0.00 0.00 0.00 0.00 0.00 0.00 0.00 0.00 0.00 0.00 0.00 0.00 0.00 0.00 0.00 0.00 0.00 0.00 0.00 0.00 0.00
0.00 0.00 0.00 0.00 0.00 0.00 0.00 0.00 0.00 0.00 0.00 0.00 0.00 0.00 0.00 0.00 0.00 0.00 0.00 0.00 0.00 0.00 0.00 0.00 0.00 0.00 0.00 0.00 0.00 0.00 0.00 0.00 0.00 0.00 0.00 0.00 0.00 0.00 0.00 0.00 0.00 0.00 0.00 0.00 0.00 0.00 0.00 0.00 0.00
0.00 0.00 0.00 0.00 0.00 0.00 0.00 0.00 0.00 0.00 0.00 0.00 0.00 0.00 0.00 0.00 0.00 0.00 0.00 0.00 0.00 0.00 0.00 0.00 0.00 0.00 0.00 0.00 0.00 0.00 0.00 0.00 0.00 0.00 0.00 0.00 0.00 0.00 0.00 0.00 0.00 0.00 0.00 0.00 0.00 0.00 0.00 0.00 0.00
0.00 0.00 0.00 0.00 0.00 0.00 0.00 0.00 0.00 0.00 0.00 0.00 0.00 0.00 0.00 0.00 0.00 0.00 0.00 0.00 0.00 0.00 0.00 0.00 0.00 0.00 0.00 0.00 0.00 0.00 0.00 0.00 0.00 0.00 0.00 0.00 0.00 0.00 0.00 0.00 0.00 0.00 0.00 0.00 0.00 0.00 0.00 0.00 0.00
0.00 0.00 0.00 0.00 0.00 0.00 0.00 0.00 0.00 0.00 0.00 0.00 0.00 0.00 0.00 0.00 0.00 0.00 0.00 0.00 0.00 0.00 0.00 0.00 0.00 0.00 0.00 0.00 0.00 0.00 0.00 0.00 0.00 0.00 0.00 0.00 0.00 0.00 0.00 0.00 0.00 0.00 0.00 0.00 0.00 0.00 0.00 0.00 0.00
0.00 0.00 0.00 0.00 0.00 0.00 0.00 0.00 0.00 0.00 0.00 0.00 0.00 0.00 0.00 0.00 0.00 0.00 0.00 0.00 0.00 0.00 0.00 0.00 0.00 0.00 0.00 0.00 0.00 0.00 0.00 0.00 0.00 0.00 0.00 0.00 0.00 0.00 0.00 0.00 0.00 0.00 0.00 0.00 0.00 0.00 0.00 0.00 0.00
0.00 0.00 0.00 0.00 0.00 0.00 0.00 0.00 0.00 0.00 0.00 0.00 0.00 0.00 0.00 0.00 0.00 0.00 0.00 0.00 0.00 0.00 0.00 0.00 0.00 0.00 0.00 0.00 0.00 0.00 0.00 0.00 0.00 0.00 0.00 0.00 0.00 0.00 0.00 0.00 0.00 0.00 0.00 0.00 0.00 0.00 0.00 0.00 0.00
0.00 0.00 0.00 0.00 0.00 0.00 0.00 0.00 0.00 0.00 0.00 0.00 0.00 0.00 0.00 0.00 0.00 0.00 0.00 0.00 0.00 0.00 0.00 0.00 0.00 0.00 0.00 0.00 0.00 0.00 0.00 0.00 0.00 0.00 0.00 0.00 0.00 0.00 0.00 0.00 0.00 0.00 0.00 0.00 0.00 0.00 0.00 0.00 0.00
0.00 0.00 0.00 0.00 0.00 0.00 0.00 0.00 0.00 0.00 0.00 0.00 0.00 0.00 0.00 0.00 0.00 0.00 0.00 0.00 0.00 0.00 0.00 0.00 0.00 0.00 0.00 0.00 0.00 0.00 0.00 0.00 0.00 0.00 0.00 0.00 0.00 0.00 0.00 0.00 0.00 0.00 0.00 0.00 0.00 0.00 0.00 0.00 0.00
0.00 0.00 0.00 0.00 0.00 0.00 0.00 0.00 0.00 0.00 0.00 0.00 0.00 0.00 0.00 0.00 0.00 0.00 0.00 0.00 0.00 0.00 0.00 0.00 0.00 0.00 0.00 0.00 0.00 0.00 0.00 0.00 0.00 0.00 0.00 0.00 0.00 0.00 0.00 0.00 0.00 0.00 0.00 0.00 0.00 0.00 0.00 0.00 0.00
0.00 0.00 0.00 0.00 0.00 0.00 0.00 0.00 0.00 0.00 0.00 0.00 0.00 0.00 0.00 0.00 0.00 0.00 0.00 0.00 0.00 0.00 0.00 0.00 0.00 0.00 0.00 0.00 0.01 0.00 0.01 0.00 0.00 0.00 0.00 0.00 0.00 0.00 0.00 0.00 0.00 0.00 0.00 0.00 0.00 0.00 0.00 0.00 0.00
0.00 0.00 0.00 0.00 0.00 0.00 0.00 0.00 0.00 0.00 0.00 0.00 0.00 0.00 0.00 0.00 0.00 0.00 0.00 0.00 0.00 0.00 0.00 0.00 0.00 0.00 0.00 0.00 0.00 0.00 0.00 0.00 0.00 0.00 0.00 0.00 0.00 0.00 0.01 0.01 0.00 0.00 0.00 0.00 0.00 0.00 0.00 0.00 0.00
0.00 0.00 0.00 0.00 0.00 0.00 0.00 0.00 0.00 0.00 0.00 0.00 0.00 0.00 0.00 0.00 0.00 0.00 0.00 0.00 0.00 0.00 0.00 0.00 0.00 0.00 0.00 0.00 0.00 0.00 0.00 0.00 0.00 0.00 0.00 0.00 0.00 0.00 0.00 0.01 0.05 0.07 0.02 0.00 0.00 0.00 0.00 0.00 0.00
0.00 0.00 0.00 0.00 0.00 0.00 0.00 0.00 0.00 0.00 0.00 0.00 0.00 0.00 0.00 0.00 0.00 0.00 0.00 0.00 0.00 0.00 0.00 0.00 0.00 0.00 0.00 0.00 0.00 0.00 0.00 0.00 0.00 0.00 0.00 0.00 0.00 0.00 0.00 0.00 0.00 0.03 0.06 0.02 0.00 0.00 0.00 0.01 0.01
0.00 0.00 0.00 0.00 0.00 0.00 0.00 0.00 0.00 0.00 0.00 0.00 0.00 0.00 0.00 0.00 0.00 0.00 0.00 0.00 0.00 0.00 0.00 0.00 0.00 0.00 0.00 0.00 0.00 0.00 0.00 0.00 0.00 0.00 0.00 0.00 0.00 0.00 0.00 0.00 0.00 0.00 0.00 0.03 0.05 0.01 0.00 0.04 0.04
0.00 0.00 0.00 0.00 0.00 0.00 0.00 0.00 0.00 0.00 0.00 0.00 0.00 0.00 0.00 0.00 0.00 0.00 0.00 0.00 0.00 0.00 0.00 0.00 0.00 0.00 0.00 0.00 0.00 0.00 0.00 0.00 0.00 0.00 0.00 0.00 0.00 0.00 0.00 0.00 0.00 0.00 0.00 0.00 0.03 0.06 0.02 0.04 0.05
0.00 0.00 0.00 0.00 0.00 0.00 0.00 0.00 0.00 0.00 0.00 0.00 0.00 0.00 0.00 0.00 0.00 0.00 0.00 0.00 0.00 0.00 0.00 0.00 0.00 0.00 0.00 0.00 0.00 0.00 0.00 0.00 0.00 0.00 0.00 0.00 0.00 0.00 0.00 0.00 0.00 0.00 0.00 0.00 0.00 0.03 0.02 0.03 0.02
0.00 0.00 0.00 0.00 0.00 0.00 0.00 0.00 0.00 0.00 0.00 0.00 0.00 0.00 0.00 0.00 0.00 0.00 0.00 0.00 0.00 0.00 0.00 0.00 0.00 0.00 0.00 0.00 0.00 0.00 0.00 0.00 0.00 0.00 0.00 0.00 0.00 0.00 0.00 0.00 0.00 0.00 0.00 0.00 0.00 0.01 0.02 0.02 0.03
0.00 0.00 0.00 0.00 0.00 0.00 0.00 0.00 0.00 0.00 0.00 0.00 0.00 0.00 0.00 0.00 0.00 0.00 0.00 0.00 0.00 0.00 0.00 0.00 0.00 0.00 0.00 0.00 0.00 0.00 0.00 0.00 0.00 0.00 0.00 0.00 0.00 0.00 0.00 0.00 0.00 0.00 0.00 0.00 0.00 0.00 0.02 0.07 0.08
0.00 0.00 0.00 0.00 0.00 0.00 0.00 0.00 0.00 0.00 0.00 0.00 0.00 0.00 0.00 0.00 0.00 0.00 0.00 0.00 0.00 0.00 0.00 0.00 0.00 0.00 0.00 0.00 0.00 0.00 0.00 0.00 0.00 0.00 0.00 0.00 0.00 0.00 0.00 0.00 0.00 0.00 0.00 0.00 0.00 0.00 0.00 0.02 0.05
0.00 0.00 0.00 0.00 0.00 0.00 0.00 0.00 0.00 0.00 0.00 0.00 0.00 0.00 0.00 0.00 0.00 0.00 0.00 0.00 0.00 0.00 0.00 0.00 0.00 0.00 0.00 0.00 0.00 0.00 0.00 0.00 0.00 0.00 0.00 0.00 0.00 0.00 0.00 0.00 0.00 0.00 0.00 0.00 0.00 0.00 0.00 0.01 0.02
0.00 0.00 0.00 0.00 0.00 0.00 0.00 0.00 0.00 0.00 0.00 0.00 0.00 0.00 0.00 0.00 0.00 0.00 0.00 0.00 0.00 0.00 0.00 0.00 0.00 0.00 0.00 0.00 0.00 0.00 0.00 0.00 0.00 0.00 0.00 0.00 0.00 0.00 0.00 0.00 0.00 0.00 0.00 0.00 0.00 0.00 0.00 0.01 0.01
0.00 0.00 0.00 0.00 0.00 0.00 0.00 0.00 0.00 0.00 0.00 0.00 0.00 0.00 0.00 0.00 0.00 0.00 0.00 0.00 0.00 0.00 0.00 0.00 0.00 0.00 0.00 0.00 0.00 0.00 0.00 0.00 0.00 0.00 0.00 0.00 0.00 0.00 0.00 0.00 0.00 0.00 0.00 0.00 0.00 0.01 0.01 0.01 0.01
0.00 0.00 0.00 0.00 0.00 0.00 0.00 0.00 0.00 0.00 0.00 0.00 0.00 0.00 0.00 0.00 0.00 0.00 0.00 0.00 0.00 0.00 0.00 0.00 0.00 0.00 0.00 0.00 0.00 0.00 0.00 0.00 0.00 0.00 0.00 0.00 0.00 0.00 0.00 0.00 0.00 0.00 0.00 0.00 0.02 0.01 0.03 0.04 0.01
0.00 0.00 0.00 0.01 0.00 0.00 0.00 0.00 0.00 0.00 0.00 0.00 0.00 0.00 0.00 0.00 0.00 0.00 0.00 0.00 0.00 0.00 0.00 0.00 0.00 0.00 0.00 0.00 0.00 0.00 0.00 0.00 0.00 0.00 0.00 0.00 0.00 0.00 0.00 0.00 0.00 0.00 0.00 0.00 0.01 0.01 0.02 0.04 0.01
MSLP
1011.29 1010.51 1009.98 1008.93 1007.18 1004.69 1002.87 1003.42 1003.82 1003.25 1003.15 1003.72 1003.84 1003.33 1003.11 1003.91 1004.23 1005.00 1007.13 1007.52 1007.69 1008.43 1009.57 1010.66 1011.21 1011.33 1011.58 1012.01 1012.14 1012.30 1012.61 1012.88 1013.24 1013.41 1013.63 1013.91 1014.14 1014.40 1014.73 1014.95 1015.16 1015.25 1015.34 1015.44 1015.59 1015.72 1015.76 1015.86 1016.01
1010.47 1010.23 1009.29 1007.02 1005.32 1003.16 1002.80 1004.00 1003.45 1003.68 1003.84 1004.16 1004.14 1004.07 1003.77 1004.50 1004.99 1006.00 1006.38 1007.65 1008.02 1008.66 1009.65 1010.26 1011.37 1011.53 1011.73 1011.90 1012.34 1012.63 1012.81 1013.06 1013.42 1013.65 1013.84 1014.08 1014.38 1014.59 1014.83 1015.07 1015.29 1015.44 1015.56 1015.67 1015.71 1015.89 1015.98 1016.03 1016.13
1010.55 1009.89 1007.42 1005.53 1004.13 1002.54 1002.55 1004.12 1004.17 1004.16 1004.32 1004.22 1003.75 1004.19 1004.33 1005.69 1006.05 1005.92 1007.13 1007.78 1008.23 1009.00 1009.61 1010.61 1011.61 1011.85 1012.13 1012.35 1012.38 1012.70 1013.10 1013.37 1013.68 1013.88 1014.06 1014.21 1014.47 1014.78 1015.03 1015.22 1015.37 1015.55 1015.71 1015.87 1015.96 1015.98 1016.15 1016.18 1016.21
1009.43 1008.59 1007.29 1005.29 1003.54 1004.66 1004.39 1004.63 1004.77 1004.31 1004.38 1004.53 1003.77 1004.47 1005.86 1007.13 1006.79 1007.15 1007.77 1008.06 1008.49 1008.91 1009.55 1011.25 1011.77 1011.92 1012.24 1012.65 1012.80 1013.03 1013.23 1013.60 1013.85 1014.07 1014.19 1014.33 1014.63 1014.94 1015.18 1015.43 1015.56 1015.68 1015.89 1015.99 1016.18 1016.09 1016.28 1016.33 1016.39
1008.88 1007.13 1005.26 1004.43 1004.53 1005.20 1005.36 1005.25 1004.99 1004.20 1004.25 1004.21 1004.44 1004.93 1006.11 1007.27 1007.46 1007.60 1007.99 1008.19 1008.33 1008.79 1009.54 1011.15 1012.01 1012.18 1012.45 1012.79 1013.05 1013.27 1013.55 1013.82 1014.01 1014.19 1014.30 1014.49 1014.79 1015.12 1015.33 1015.55 1015.72 1015.89 1016.09 1016.14 1016.35 1016.31 1016.23 1016.59 1016.72
1007.33 1006.41 1004.73 1004.07 1004.61 1005.44 1005.54 1005.59 1004.96 1004.43 1004.48 1004.71 1004.89 1005.24 1006.35 1007.16 1007.18 1007.53 1007.80 1008.13 1008.48 1009.07 1009.66 1011.03 1012.15 1012.46 1012.81 1013.07 1013.28 1013.43 1013.69 1013.98 1014.25 1014.43 1014.57 1014.74 1014.97 1015.27 1015.47 1015.69 1015.85 1016.02 1016.24 1016.27 1016.47 1016.56 1016.38 1016.61 1016.83
1006.47 1005.57 1004.02 1003.83 1004.88 1005.23 1005.64 1005.95 1005.33 1004.73 1004.61 1005.28 1005.35 1005.11 1006.36 1006.96 1007.66 1007.72 1007.99 1008.44 1008.77 1009.26 1009.66 1010.57 1011.32 1012.17 1012.79 1013.04 1013.33 1013.61 1013.81 1013.98 1014.26 1014.51 1014.80 1015.09 1015.21 1015.45 1015.68 1015.85 1015.93 1016.11 1016.28 1016.43 1016.52 1016.68 1016.62 1016.81 1017.01
1007.04 1005.78 1005.12 1004.53 1004.96 1005.24 1006.06 1005.90 1006.01 1005.38 1005.76 1006.01 1005.75 1005.23 1006.09 1007.30 1007.52 1007.53 1007.55 1007.87 1008.35 1008.87 1009.25 1009.90 1010.53 1011.19 1011.81 1012.36 1013.25 1013.57 1013.85 1014.09 1014.32 1014.59 1014.86 1015.10 1015.37 1015.62 1015.77 1015.85 1015.98 1016.14 1016.34 1016.39 1016.57 1016.72 1016.68 1016.96 1017.15
1007.81 1005.81 1004.60 1004.96 1005.00 1005.51 1006.23 1005.75 1006.30 1006.55 1005.75 1005.95 1006.18 1006.25 1007.12 1007.44 1007.28 1006.98 1007.12 1007.49 1007.77 1008.34 1008.83 1009.22 1009.77 1010.29 1010.83 1011.21 1012.54 1013.44 1013.79 1014.14 1014.39 1014.63 1014.89 1015.13 1014.56 1014.98 1015.50 1015.39 1015.85 1016.11 1016.30 1016.40 1016.53 1016.76 1016.91 1017.02 1017.35
1007.03 1005.63 1004.96 1005.67 1005.79 1005.91 1006.33 1006.35 1006.35 1006.29 1006.09 1006.11 1006.34 1006.74 1007.10 1007.25 1007.09 1006.63 1006.57 1006.59 1007.28 1007.99 1008.59 1009.00 1009.55 1010.03 1010.51 1011.02 1011.74 1012.45 1012.71 1013.17 1013.45 1013.72 1014.19 1014.30 1013.91 1014.12 1014.25 1015.07 1015.93 1016.15 1016.23 1016.39 1016.41 1016.62 1016.82 1016.88 1016.23
1007.19 1005.85 1006.79 1007.15 1007.11 1007.04 1006.73 1006.71 1006.72 1006.29 1005.88 1005.94 1006.21 1006.59 1006.93 1007.05 1007.01 1006.89 1006.59 1006.58 1006.52 1007.10 1008.28 1008.97 1009.83 1010.26 1010.41 1010.71 1011.26 1011.49 1011.86 1012.36 1012.85 1013.21 1013.60 1013.86 1013.69 1014.24 1014.54 1014.51 1015.35 1015.51 1016.10 1015.59 1016.01 1016.22 1015.83 1015.25 1014.93
1007.36 1007.53 1007.37 1007.43 1007.79 1007.57 1007.19 1007.02 1006.68 1006.49 1006.02 1006.78 1007.03 1007.23 1007.29 1007.18 1007.00 1006.81 1006.78 1006.71 1006.87 1007.34 1007.93 1008.84 1009.53 1010.29 1010.67 1010.30 1011.01 1011.09 1011.37 1011.77 1012.18 1012.67 1013.33 1013.46 1013.83 1013.88 1013.87 1013.76 1013.92 1014.46 1014.65 1014.56 1014.95 1014.76 1014.75 1014.92 1015.05
1007.38 1007.66 1007.86 1007.90 1007.91 1007.85 1007.75 1007.30 1006.85 1006.48 1006.65 1007.15 1007.13 1007.40 1007.35 1007.28 1007.33 1007.22 1007.22 1007.32 1007.45 1007.49 1007.90 1008.56 1009.45 1010.09 1010.56 1010.81 1010.60 1011.01 1011.16 1011.63 1011.71 1012.38 1012.82 1013.05 1013.56 1013.57 1013.60 1013.71 1013.78 1013.85 1014.01 1014.39 1014.57 1014.58 1014.85 1014.86 1014.83
1007.92 1007.88 1007.74 1007.82 1007.67 1007.87 1007.74 1007.07 1007.37 1006.65 1007.21 1007.04 1007.10 1006.87 1007.04 1007.23 1007.20 1007.26 1007.33 1007.39 1007.61 1007.83 1007.98 1008.41 1009.27 1010.13 1010.70 1010.74 1010.92 1010.96 1011.05 1011.19 1011.95 1011.93 1012.39 1013.26 1013.53 1013.75 1013.35 1013.75 1013.91 1013.87 1013.95 1014.03 1014.25 1014.43 1014.73 1014.57 1014.29
1008.17 1007.79 1007.56 1007.54 1007.55 1007.53 1007.71 1007.02 1006.77 1006.51 1006.96 1006.79 1006.64 1006.64 1006.65 1006.84 1006.95 1007.06 1007.02 1007.31 1007.50 1007.69 1008.09 1008.62 1009.04 1009.92 1010.57 1010.78 1010.85 1011.26 1010.89 1011.01 1011.39 1012.47 1012.32 1012.94 1013.18 1013.56 1013.90 1013.42 1013.56 1013.55 1013.76 1014.01 1014.31 1014.31 1014.60 1014.46 1014.34
1007.78 1007.46 1006.45 1006.77 1007.32 1007.54 1007.65 1005.63 1005.79 1006.47 1006.57 1006.32 1006.24 1006.21 1006.19 1006.13 1006.40 1006.62 1006.87 1007.17 1007.49 1007.85 1008.07 1008.55 1008.73 1009.26 1010.33 1010.66 1010.94 1010.75 1010.91 1010.93 1011.15 1011.75 1011.75 1012.47 1013.11 1013.48 1013.22 1013.37 1013.23 1013.25 1013.63 1013.61 1013.72 1013.95 1013.95 1014.01 1014.05
1007.07 1005.81 1006.13 1006.15 1007.05 1006.96 1007.03 1005.56 1005.64 1006.25 1006.10 1005.97 1005.93 1005.75 1005.56 1005.51 1005.71 1006.18 1006.54 1006.93 1007.34 1007.64 1007.95 1008.30 1008.75 1009.01 1009.76 1010.31 1010.76 1010.90 1010.77 1011.30 1011.35 1011.53 1011.70 1012.09 1012.57 1012.79 1013.23 1013.41 1012.81 1013.42 1013.37 1013.37 1013.32 1013.47 1013.60 1013.42 1013.69
1005.49 1006.01 1006.12 1006.09 1006.33 1006.85 1006.18 1005.45 1005.28 1005.37 1005.39 1005.20 1005.23 1005.08 1004.97 1005.00 1005.24 1005.61 1005.99 1006.62 1006.97 1007.39 1007.86 1008.12 1008.51 1008.95 1009.63 1009.91 1010.31 1010.32 1010.40 1010.58 1010.55 1010.92 1011.24 1011.93 1012.15 1012.45 1012.93 1012.92 1013.72 1013.68 1013.31 1013.33 1013.12 1013.14 1013.03 1013.31 1013.25
1006.97 1006.65 1006.18 1006.15 1006.55 1006.89 1005.95 1005.26 1004.83 1004.80 1004.66 1004.44 1004.41 1004.48 1004.62 1004.73 1004.87 1005.21 1005.73 1006.46 1006.80 1007.18 1007.51 1007.76 1008.23 1008.87 1009.35 1009.57 1009.62 1009.56 1009.70 1010.03 1010.25 1010.51 1010.90 1011.24 1011.60 1011.97 1012.50 1013.11 1013.52 1013.68 1013.87 1013.10 1012.92 1013.17 1013.30 1012.89 1013.15
1007.18 1006.62 1006.17 1006.22 1006.52 1006.68 1005.79 1004.72 1004.29 1004.10 1003.91 1004.04 1004.04 1004.09 1004.27 1004.41 1004.57 1004.85 1005.31 1005.85 1006.42 1006.75 1007.19 1007.57 1007.98 1008.65 1009.16 1009.17 1009.39 1009.26 1009.41 1009.57 1009.81 1010.09 1010.52 1010.93 1011.21 1011.50 1011.72 1012.13 1012.61 1013.33 1013.10 1013.03 1013.05 1012.95 1012.66 1012.74 1013.56
1006.77 1006.48 1006.17 1006.22 1006.20 1006.29 1005.56 1004.25 1002.93 1003.23 1003.41 1003.73 1004.02 1004.14 1004.26 1004.32 1004.46 1004.73 1005.02 1005.24 1005.82 1006.29 1006.75 1007.16 1007.68 1008.21 1008.79 1008.88 1009.43 1009.88 1009.93 1010.10 1010.05 1009.95 1010.23 1010.50 1010.93 1011.22 1011.49 1011.54 1011.80 1012.08 1012.59 1012.67 1012.77 1013.02 1012.75 1012.57 1013.56
1006.26 1006.14 1006.48 1006.35 1006.17 1005.00 1005.26 1003.25 1002.46 1002.37 1002.45 1002.88 1003.40 1003.71 1003.73 1004.05 1004.50 1004.66 1004.94 1005.14 1005.46 1005.87 1006.55 1007.03 1007.57 1007.97 1008.46 1008.89 1008.87 1009.17 1009.09 1009.06 1009.03 1009.33 1009.51 1010.21 1010.58 1010.78 1010.95 1011.25 1011.41 1011.64 1011.45 1011.75 1012.27 1012.59 1012.59 1012.56 1012.24
1006.25 1006.49 1006.54 1006.24 1005.73 1005.14 1004.45 1003.80 1001.96 1001.94 1002.12 1002.23 1002.67 1003.15 1003.60 1003.89 1004.12 1004.44 1004.80 1005.17 1005.31 1005.98 1006.42 1006.94 1007.54 1008.07 1008.27 1008.64 1008.76 1009.01 1009.39 1009.01 1009.17 1009.59 1010.25 1010.53 1010.68 1010.70 1010.63 1010.63 1010.90 1011.11 1011.28 1011.17 1011.44 1011.78 1012.19 1011.97 1012.35
1006.41 1006.69 1006.32 1006.16 1005.57 1004.11 1003.31 1002.97 1001.13 1000.68 1001.44 1001.65 1002.31 1002.95 1003.47 1003.67 1004.07 1004.43 1004.87 1005.19 1005.44 1005.67 1006.31 1006.88 1007.40 1007.88 1008.36 1008.86 1009.25 1009.41 1009.47 1009.62 1009.51 1009.78 1009.92 1009.81 1009.87 1010.07 1010.33 1010.49 1010.59 1010.69 1010.75 1010.85 1010.93 1011.17 1011.53 1011.84 1012.04
1006.47 1006.13 1005.00 1004.21 1003.75 1002.84 1003.13 1002.83 1001.39 1001.35 1001.79 1001.62 1002.16 1002.77 1003.45 1003.67 1003.84 1004.27 1004.56 1004.66 1005.28 1005.52 1006.09 1006.73 1007.25 1007.63 1008.07 1008.31 1008.74 1009.07 1009.34 1009.59 1009.71 1009.75 1009.51 1009.86 1009.65 1009.68 1009.81 1010.30 1010.42 1010.21 1010.28 1010.41 1010.48 1010.57 1010.63 1010.99 1011.39
1004.71 1005.51 1004.61 1003.41 1002.81 1002.01 1003.20 1002.10 1001.42 1001.60 1001.70 1002.10 1002.28 1002.63 1003.34 1003.71 1003.89 1004.18 1004.46 1004.72 1005.02 1005.53 1005.91 1006.34 1006.98 1007.40 1007.83 1008.09 1008.37 1008.73 1009.09 1008.95 1009.09 1009.53 1009.54 1009.59 1009.61 1009.72 1009.98 1010.19 1010.17 1010.04 1009.95 1009.88 1010.02 1010.01 1009.95 1009.92 1010.53
1004.86 1005.21 1005.26 1004.55 1003.85 1003.20 1002.42 1001.52 1001.07 1001.91 1002.01 1002.07 1002.31 1002.63 1003.18 1003.85 1004.34 1004.50 1004.67 1005.10 1005.37 1005.69 1006.01 1006.35 1006.69 1007.09 1007.49 1007.83 1008.23 1008.60 1008.87 1008.95 1008.71 1009.37 1009.75 1009.41 1009.78 1009.64 1009.82 1009.87 1009.77 1009.69 1009.55 1009.47 1009.48 1009.46 1009.32 1009.33 1009.50
1005.73 1005.24 1005.39 1005.33 1004.29 1002.77 1001.53 1000.64 1000.26 1000.97 1001.52 1001.83 1001.99 1002.33 1002.87 1003.69 1004.33 1004.59 1004.86 1005.23 1005.46 1005.59 1005.89 1006.15 1006.41 1006.70 1007.05 1007.47 1007.86 1008.05 1008.45 1008.71 1008.87 1009.24 1009.45 1009.61 1009.67 1009.65 1009.64 1009.72 1009.63 1009.37 1009.06 1008.97 1008.79 1008.84 1008.67 1008.83 1008.81
1005.46 1005.46 1005.41 1005.35 1004.62 1003.15 1001.65 1000.54 1000.70 1000.81 1001.33 1001.36 1001.48 1001.86 1002.48 1003.43 1003.92 1004.23 1004.75 1005.06 1005.32 1005.37 1005.47 1005.62 1005.94 1006.29 1006.60 1006.95 1007.14 1007.38 1007.79 1008.17 1008.55 1008.91 1009.05 1009.19 1009.25 1009.33 1009.29 1009.21 1009.21 1009.07 1008.74 1008.44 1008.28 1008.17 1008.11 1008.15 1008.15
1006.23 1005.49 1005.74 1005.84 1004.95 1004.22 1002.71 1000.53 1001.12 1001.46 1001.81 1001.93 1002.21 1002.49 1003.04 1003.63 1004.07 1004.38 1004.73 1005.03 1005.28 1005.32 1005.24 1005.26 1005.55 1005.69 1005.91 1006.42 1006.82 1006.93 1007.35 1007.71 1008.03 1008.33 1008.43 1008.58 1008.64 1008.81 1008.87 1008.82 1008.75 1008.59 1008.24 1007.93 1007.63 1007.60 1007.54 1007.42 1007.38
Thickness
5791 5798 5805 5803 5789 5804 5803 5800 5814 5815 5822 5836 5841 5841 5841 5839 5826 5811 5843 5846 5847 5840 5831 5822 5817 5816 5815 5812 5811 5810 5808 5805 5801 5800 5798 5795 5794 5793 5790 5788 5785 5785 5783 5781 5779 5777 5776 5774 5771
5794 5797 5801 5804 5788 5792 5799 5804 5806 5817 5828 5834 5836 5836 5835 5822 5844 5840 5843 5844 5843 5836 5828 5823 5814 5813 5812 5811 5808 5806 5804 5802 5798 5796 5794 5793 5791 5790 5789 5786 5784 5782 5781 5778 5778 5775 5773 5772 5771
5791 5796 5796 5796 5796 5799 5798 5801 5806 5817 5827 5827 5832 5840 5835 5818 5835 5843 5846 5844 5840 5833 5827 5818 5811 5809 5807 5806 5807 5803 5800 5797 5794 5792 5790 5790 5788 5786 5785 5784 5781 5779 5778 5776 5774 5773 5770 5769 5768
5790 5792 5794 5785 5789 5786 5792 5800 5807 5812 5822 5827 5837 5817 5826 5827 5830 5837 5840 5839 5835 5832 5825 5813 5808 5808 5805 5801 5801 5798 5797 5793 5790 5788 5788 5787 5785 5782 5781 5779 5778 5777 5774 5774 5772 5772 5769 5766 5765
5791 5793 5782 5781 5778 5783 5791 5800 5806 5810 5813 5820 5825 5809 5808 5819 5831 5833 5831 5833 5830 5828 5821 5808 5802 5802 5800 5797 5796 5794 5792 5789 5788 5785 5785 5784 5782 5779 5777 5776 5774 5773 5770 5770 5768 5768 5768 5763 5761
5780 5789 5774 5771 5775 5780 5790 5797 5805 5809 5813 5812 5810 5809 5804 5822 5825 5827 5830 5828 5828 5821 5816 5805 5797 5795 5792 5791 5790 5790 5788 5785 5783 5781 5779 5778 5777 5775 5774 5773 5770 5770 5768 5767 5765 5764 5766 5762 5759
5778 5778 5780 5784 5770 5773 5781 5795 5794 5802 5806 5799 5813 5800 5806 5811 5817 5822 5823 5821 5820 5816 5812 5804 5798 5793 5789 5787 5786 5784 5783 5782 5779 5777 5774 5771 5771 5771 5770 5769 5767 5766 5765 5763 5762 5760 5762 5759 5756
5779 5779 5763 5776 5765 5766 5781 5788 5793 5796 5788 5807 5810 5794 5791 5804 5816 5820 5821 5820 5817 5814 5811 5805 5801 5795 5791 5787 5782 5780 5778 5777 5775 5772 5769 5767 5765 5765 5765 5765 5764 5762 5761 5760 5758 5756 5758 5755 5753
5777 5766 5764 5764 5767 5769 5781 5781 5788 5793 5792 5796 5799 5798 5799 5807 5814 5814 5813 5811 5812 5810 5808 5807 5802 5798 5792 5790 5781 5775 5773 5771 5769 5768 5765 5762 5765 5762 5761 5765 5762 5759 5756 5756 5755 5753 5752 5752 5748
5766 5764 5768 5776 5776 5770 5774 5774 5776 5776 5778 5781 5786 5795 5799 5801 5802 5803 5804 5804 5802 5800 5800 5801 5798 5794 5790 5785 5780 5775 5774 5771 5769 5767 5764 5763 5765 5764 5764 5761 5757 5754 5753 5752 5752 5750 5749 5749 5752
5762 5761 5760 5759 5766 5768 5767 5766 5775 5770 5767 5777 5777 5783 5790 5793 5794 5794 5798 5801 5803 5804 5797 5795 5789 5786 5785 5782 5777 5775 5774 5771 5767 5765 5763 5761 5762 5758 5755 5758 5754 5755 5751 5754 5751 5750 5752 5757 5758
5748 5754 5757 5758 5758 5758 5755 5764 5761 5766 5770 5776 5776 5778 5779 5780 5783 5788 5790 5793 5794 5792 5791 5788 5785 5778 5776 5779 5774 5773 5770 5768 5766 5763 5758 5758 5755 5755 5755 5757 5758 5757 5757 5759 5756 5757 5757 5756 5755
5749 5749 5751 5754 5754 5753 5755 5751 5754 5760 5770 5771 5771 5768 5768 5772 5774 5779 5781 5782 5782 5780 5781 5779 5775 5771 5768 5765 5768 5767 5766 5761 5762 5758 5756 5755 5752 5754 5752 5753 5753 5756 5757 5757 5756 5756 5754 5753 5753
5746 5745 5747 5749 5750 5748 5742 5749 5746 5757 5760 5760 5761 5763 5764 5763 5765 5768 5770 5770 5771 5771 5772 5773 5767 5762 5758 5757 5755 5756 5757 5757 5752 5753 5752 5747 5746 5747 5749 5747 5747 5748 5751 5755 5754 5755 5753 5753 5754
5740 5732 5740 5742 5745 5741 5744 5734 5736 5757 5756 5754 5757 5760 5762 5761 5764 5762 5766 5764 5766 5766 5765 5761 5760 5755 5748 5747 5748 5744 5748 5748 5748 5740 5744 5742 5742 5741 5739 5744 5744 5744 5745 5748 5749 5751 5749 5750 5751
5728 5733 5728 5741 5740 5739 5735 5730 5748 5753 5749 5749 5753 5755 5758 5761 5762 5764 5763 5761 5760 5757 5756 5755 5755 5751 5741 5739 5736 5739 5737 5739 5739 5737 5740 5736 5734 5733 5736 5739 5740 5740 5738 5742 5747 5748 5749 5748 5748
5725 5726 5723 5729 5738 5735 5730 5731 5743 5747 5747 5743 5746 5751 5755 5758 5760 5760 5760 5758 5755 5752 5749 5747 5746 5742 5737 5734 5730 5728 5729 5726 5728 5729 5729 5729 5729 5729 5729 5731 5735 5730 5734 5737 5743 5746 5746 5746 5744
5724 5717 5720 5717 5729 5727 5728 5731 5741 5745 5745 5744 5745 5750 5752 5753 5754 5758 5758 5755 5753 5749 5744 5741 5738 5735 5730 5728 5725 5726 5725 5724 5725 5724 5723 5722 5723 5722 5722 5725 5723 5720 5728 5729 5738 5741 5746 5743 5743
5713 5710 5711 5720 5724 5712 5720 5726 5735 5741 5744 5744 5746 5747 5746 5748 5756 5758 5754 5748 5745 5743 5739 5737 5731 5727 5724 5720 5718 5720 5719 5720 5720 5721 5718 5718 5718 5717 5717 5715 5715 5716 5715 5725 5733 5734 5734 5740 5741
5703 5702 5706 5714 5715 5708 5714 5721 5734 5738 5740 5741 5743 5743 5743 5745 5748 5749 5748 5745 5740 5737 5734 5731 5727 5722 5718 5717 5716 5718 5717 5718 5717 5717 5714 5712 5713 5713 5713 5714 5714 5711 5714 5718 5723 5727 5731 5733 5729
5699 5696 5699 5697 5706 5707 5706 5711 5732 5737 5739 5738 5738 5739 5739 5738 5738 5740 5741 5742 5739 5733 5730 5727 5723 5719 5714 5714 5710 5706 5706 5705 5705 5708 5707 5708 5706 5706 5707 5710 5711 5713 5713 5714 5717 5717 5720 5720 5717
5687 5707 5698 5692 5687 5685 5701 5691 5722 5733 5730 5731 5732 5732 5735 5734 5732 5734 5732 5732 5732 5730 5727 5723 5718 5714 5711 5709 5707 5703 5702 5700 5705 5705 5707 5703 5701 5701 5702 5702 5705 5707 5712 5712 5712 5712 5713 5713 5715
5687 5697 5689 5688 5684 5686 5692 5683 5714 5727 5714 5720 5726 5727 5728 5729 5729 5726 5726 5725 5728 5723 5720 5717 5712 5707 5707 5704 5703 5700 5695 5700 5699 5697 5693 5692 5693 5695 5696 5699 5700 5702 5704 5708 5709 5709 5708 5710 5709
5692 5680 5681 5680 5678 5669 5693 5691 5706 5721 5717 5719 5721 5720 5719 5722 5722 5721 5720 5719 5718 5719 5713 5710 5705 5701 5699 5695 5691 5688 5687 5686 5687 5686 5686 5690 5693 5694 5693 5693 5695 5697 5699 5701 5703 5705 5705 5704 5706
5675 5666 5659 5666 5667 5670 5683 5678 5701 5710 5714 5718 5711 5711 5711 5714 5714 5712 5711 5712 5709 5709 5706 5702 5698 5694 5692 5691 5688 5685 5683 5680 5677 5677 5682 5679 5684 5687 5688 5687 5688 5693 5695 5696 5698 5699 5702 5702 5700
5676 5667 5658 5647 5664 5686 5669 5661 5686 5707 5712 5711 5710 5707 5704 5703 5704 5703 5703 5703 5702 5699 5698 5696 5690 5687 5685 5684 5682 5681 5679 5680 5678 5674 5674 5675 5676 5677 5679 5680 5682 5686 5689 5692 5693 5695 5698 5702 5698
5667 5648 5671 5655 5666 5654 5669 5682 5695 5692 5693 5696 5696 5696 5692 5690 5689 5690 5692 5690 5689 5688 5688 5686 5683 5681 5678 5677 5675 5672 5671 5671 5673 5668 5666 5668 5665 5669 5670 5673 5676 5679 5683 5686 5688 5690 5694 5697 5697
5651 5669 5636 5642 5621 5630 5662 5672 5673 5675 5676 5684 5686 5687 5686 5683 5679 5678 5679 5678 5679 5680 5679 5679 5678 5674 5672 5669 5667 5666 5664 5664 5664 5661 5659 5657 5658 5658 5660 5663 5666 5671 5676 5679 5684 5685 5689 5689 5693
5640 5635 5638 5639 5641 5630 5639 5662 5681 5673 5671 5675 5682 5684 5681 5675 5671 5670 5668 5669 5670 5672 5672 5671 5669 5666 5664 5662 5661 5660 5657 5655 5655 5653 5653 5653 5654 5653 5653 5655 5657 5660 5664 5669 5675 5679 5684 5683 5687
5630 5634 5632 5607 5609 5626 5634 5648 5678 5665 5659 5661 5663 5667 5666 5662 5659 5658 5658 5658 5656 5658 5659 5659 5658 5658 5658 5654 5651 5650 5647 5645 5643 5643 5646 5648 5647 5647 5648 5648 5650 5652 5656 5661 5667 5672 5677 5678 5681